CST,Max TemperatureF,Mean TemperatureF,Min TemperatureF,Max Dew PointF,MeanDew PointF,Min DewpointF,Max Humidity, Mean Humidity, Min Humidity, Max Sea Level PressureIn, Mean Sea Level PressureIn, Min Sea Level PressureIn, Max VisibilityMiles, Mean VisibilityMiles, Min VisibilityMiles, Max Wind SpeedMPH, Mean Wind SpeedMPH, Max Gust SpeedMPH,PrecipitationIn, CloudCover, Events, WindDirDegrees
2013-11-1,54,47,40,46,44,39,100,83,66,29.81,29.66,29.54,10,8,3,22,12,25,0.02,6,Rain,252
2013-11-2,51,41,31,42,37,32,100,81,61,30.17,29.98,29.80,10,9,4,21,8,45,T,3,Snow,283
2013-11-3,55,42,29,39,33,27,100,72,43,30.33,30.26,30.17,10,9,5,15,7,21,0.00,0,,140
2013-11-4,60,50,40,43,39,36,86,69,51,30.27,30.24,30.18,10,10,10,23,13,28,0.00,3,,156
2013-11-5,59,55,50,50,47,44,93,80,67,30.33,30.22,30.04,10,9,5,23,12,28,0.06,7,Rain,161
2013-11-6,58,47,35,54,46,32,93,83,72,30.22,30.01,29.91,10,8,2,28,16,36,0.26,7,Rain,244
2013-11-7,51,39,27,35,30,25,92,73,54,30.34,30.29,30.23,10,10,9,23,10,29,0.00,1,,269
2013-11-8,53,39,25,33,29,22,92,67,41,30.39,30.27,30.09,10,10,7,22,9,28,0.00,1,,197
2013-11-9,64,51,38,41,36,33,79,59,39,30.20,30.07,30.01,10,10,10,26,15,32,0.00,0,,240
2013-11-10,50,40,30,35,30,27,89,68,46,30.42,30.33,30.22,10,10,9,16,8,22,0.00,0,,279
2013-11-11,53,41,28,42,33,22,96,79,61,30.47,30.27,30.12,10,7,1,26,15,33,0.10,8,Rain-Snow,323
2013-11-12,33,26,19,24,18,15,84,72,59,30.74,30.67,30.49,10,10,10,23,12,29,0.00,1,,325
2013-11-13,39,28,16,23,19,12,88,68,48,30.67,30.53,30.30,10,10,10,20,11,24,0.00,0,,212
2013-11-14,54,41,27,28,24,21,81,57,32,30.29,30.16,30.06,10,10,10,25,15,32,0.00,0,,195
2013-11-15,53,46,38,41,33,28,89,68,46,30.07,30.03,29.99,10,10,8,18,12,22,0.00,4,,182
2013-11-16,63,54,44,58,51,42,93,80,67,29.98,29.84,29.65,10,7,0,32,20,41,0.03,7,Rain,167
2013-11-17,71,56,41,64,55,37,97,77,56,29.89,29.57,29.27,10,10,3,46,22,59,0.06,5,Rain-Thunderstorm,206
2013-11-18,50,39,27,39,32,24,92,67,42,30.29,30.11,29.89,10,10,10,30,14,37,0.00,0,,281
2013-11-19,45,33,21,29,26,19,92,73,53,30.39,30.33,30.28,10,10,10,14,7,17,0.00,0,,75
2013-11-20,45,35,24,39,31,23,92,75,58,30.29,30.20,30.12,10,9,7,21,10,25,0.06,3,Rain,124
2013-11-21,49,46,43,48,45,39,100,90,80,30.21,30.17,30.14,10,4,0,16,8,21,0.48,8,Fog-Rain,185
2013-11-22,48,38,28,47,37,26,100,88,75,30.51,30.36,30.18,10,6,0,21,12,26,0.06,7,Fog-Rain,333
2013-11-23,29,22,15,27,16,8,92,74,55,30.73,30.59,30.47,10,10,10,26,15,35,0.00,2,,327
2013-11-24,27,18,9,13,7,2,80,59,37,30.78,30.66,30.48,10,10,10,14,6,17,0.00,0,,271
2013-11-25,34,28,22,25,19,13,74,63,51,30.44,30.27,30.15,10,10,8,21,12,25,T,6,Snow,207
2013-11-26,39,30,21,27,22,8,92,75,57,30.17,30.11,30.03,10,10,10,26,12,35,0.00,7,,292
2013-11-27,29,21,13,10,7,5,84,62,39,30.34,30.27,30.17,10,10,10,23,13,29,0.00,0,,300
2013-11-28,40,28,16,20,15,10,80,60,40,30.52,30.34,30.24,10,10,10,23,11,29,0.00,1,,238
2013-11-29,40,28,15,22,18,11,81,63,44,30.65,30.56,30.44,10,10,10,13,7,17,0.00,0,,99
2013-11-30,52,39,25,29,26,21,85,63,41,30.42,30.24,30.11,10,10,9,20,11,23,0.00,0,,179